Medicine Lodge, KS

1:42 PM CST on January 16, 2017 (GMT -0600)
Medicine Lodge

Weather History for KP28 - June, 2013

Change the Weather History Date:

Thursday, June 20, 2013

  Actual Average Record
Temperature  
Mean Temperature 84 °F 78 °F  
Max Temperature 97 °F 90 °F 106 °F (1918)
Min Temperature 70 °F 66 °F 45 °F (1976)
Degree Days  
Heating Degree Days 0 0  
Month to date heating degree days 4 0  
Since 1 June heating degree days 4 0  
Since 1 July heating degree days 4523 4455  
Cooling Degree Days 19 13  
Month to date cooling degree days 210 209  
Year to date cooling degree days 353 365  
Since 1 June cooling degree days 210 209  
Growing Degree Days 34 (Base 50)    
Moisture  
Dew Point 66 °F    
Average Humidity 64    
Maximum Humidity 97    
Minimum Humidity 30    
Precipitation  
Precipitation 0.00 in 0.13 in 3.50 in (1919)
Month to date precipitation 1.68 2.95  
Year to date precipitation 12.03 12.69  
Snow  
Snow 0.00 in 0.00 in - ()
Month to date snowfall 0.0 0.0  
Since 1 June snowfall 0.0 0.0  
Since 1 July snowfall 25.0 8.5  
Snow Depth 0.00 in    
Sea Level Pressure  
Sea Level Pressure 29.83 in    
Wind  
Wind Speed 16 mph (SSE)    
Max Wind Speed 32 mph    
Max Gust Speed 42 mph    
T = Trace of Precipitation, MM = Missing Value Source: NWS Daily Summary

Daily Weather History Graph

Daily Weather History Graph

Search for Another Location

Airport or City:

Trip Planner

Search our weather history database for the weather conditions in past years. The results will help you decide how hot, cold, wet, or windy it might be!

Date:

Astronomy

Jun. 20, 2013 Rise Set
Actual Time 6:13 AM CDT 8:58 PM CDT
Civil Twilight 5:42 AM CDT 9:29 PM CDT
Nautical Twilight 5:04 AM CDT 10:07 PM CDT
Astronomical Twilight 4:20 AM CDT 10:51 PM CDT
Moon 6:04 PM CDT (6/20) 3:38 AM CDT (6/20)
Length of Visible Light 15h 46m
Length of Day
14h 44m
Waxing Gibbous, 89% of the Moon is Illuminated
Jun 20
Waxing Gibbous
Jun 23
Full
Jun 29
Last Quarter
Jul 8
New
Jul 15
First Quarter

Hourly Weather History & Observations

Time (CDT) Temp. Heat Index Dew Point Humidity Pressure Visibility Wind Dir Wind Speed Gust Speed Precip Events Conditions
12:56 AM 73.9 °F - 68.0 °F 82% 29.88 in - SE 11.5 mph 18.4 mph N/A   Unknown
1:56 AM 73.0 °F - 69.1 °F 87% 29.86 in - SE 10.4 mph - N/A   Unknown
2:56 AM 72.0 °F - 69.1 °F 91% 29.86 in - SE 8.1 mph - N/A   Unknown
3:56 AM 72.0 °F - 69.1 °F 91% 29.86 in - South 6.9 mph - N/A   Unknown
4:56 AM 71.1 °F - 68.0 °F 90% 29.86 in - SSE 6.9 mph - N/A   Unknown
5:56 AM 71.1 °F - 68.0 °F 90% 29.86 in - SSE 8.1 mph - N/A   Unknown
6:56 AM 70.0 °F - 68.0 °F 93% 29.87 in - SSE 8.1 mph - N/A   Unknown
7:56 AM 72.0 °F - 68.0 °F 87% 29.88 in - SSE 10.4 mph 18.4 mph N/A   Unknown
8:56 AM 73.9 °F - 68.0 °F 82% 29.88 in - South 12.7 mph 20.7 mph N/A   Unknown
9:56 AM 77.0 °F - 66.9 °F 71% 29.88 in - South 16.1 mph 23.0 mph N/A   Unknown
10:56 AM 81.0 °F 83.3 °F 66.9 °F 62% 29.85 in - South 15.0 mph 23.0 mph N/A   Unknown
11:56 AM 89.1 °F 91.3 °F 66.0 °F 46% 29.82 in - South 21.9 mph 31.1 mph N/A   Unknown
12:56 PM 91.0 °F 93.8 °F 66.0 °F 44% 29.79 in - South 23.0 mph 32.2 mph N/A   Unknown
1:56 PM 95.0 °F 95.2 °F 61.0 °F 32% 29.78 in - South 25.3 mph 38.0 mph N/A   Unknown
2:56 PM 97.0 °F 96.9 °F 60.1 °F 29% 29.76 in - South 24.2 mph 36.8 mph N/A   Unknown
3:56 PM 96.1 °F 96.9 °F 62.1 °F 32% 29.76 in - South 26.5 mph 36.8 mph N/A   Unknown
4:56 PM 96.1 °F 96.9 °F 62.1 °F 32% 29.76 in - South 25.3 mph 36.8 mph N/A   Unknown
5:56 PM 96.1 °F 96.9 °F 62.1 °F 32% 29.75 in - South 23.0 mph 34.5 mph N/A   Unknown
6:56 PM 93.0 °F 94.2 °F 63.0 °F 37% 29.76 in - South 23.0 mph 39.1 mph N/A   Unknown
7:56 PM 91.0 °F 91.9 °F 63.0 °F 39% 29.77 in - South 20.7 mph 29.9 mph N/A   Unknown
8:56 PM 88.0 °F 90.3 °F 66.0 °F 48% 29.80 in - South 13.8 mph 25.3 mph N/A   Unknown
9:56 PM 84.9 °F 87.1 °F 66.0 °F 53% 29.83 in - South 12.7 mph 26.5 mph N/A   Unknown
10:56 PM 82.9 °F 85.4 °F 66.9 °F 58% 29.85 in - South 15.0 mph 24.2 mph N/A   Unknown
11:56 PM 81.0 °F 83.3 °F 66.9 °F 62% 29.85 in - SSE 12.7 mph 21.9 mph N/A   Unknown